[[{"header":{"parameterUnit":"m.s-1","parameterCategory":1,"la1":30.2992,"la2":30.254,"lo1":-89.0895,"lo2":-89.0443,"dy":0.0025,"dx":0.0025,"nx":19,"ny":19,"refTime":"2026-03-19T03:00:00:Z","depth":0,"parameterNumber":2,"parameterNumberName":"U-component_of_WINDS"},"data":[0,0,0,0.3109,0.3111,0.3242,0.3243,0.339,0.3391,0,0,0,0,0,0,0,0,0,0,0,0.3058,0.3059,0.3109,0.3112,0.3242,0.3243,0.339,0.3391,0,0,0,0,0,0,0,0,0,0,0,0.3058,0.3059,0.3059,0.3112,0.3242,0.3243,0.339,0.3298,0,0,0,0,0,0,0,0,0,0,0.3175,0.3116,0.3058,0.3059,0.3113,0.3242,0.3243,0.3294,0.3304,0.3322,0,0.3336,0,0.3366,0.34,0.34,0,0,0,0.3121,0.3108,0.3154,0.3059,0.3114,0.3241,0.3186,0.33,0.3311,0.3335,0.3338,0.3344,0.3368,0.3401,0.3401,0.3477,0.3476,0,0,0.3113,0.3075,0.3146,0.316,0.3139,0.3181,0.319,0.3307,0.3307,0.3339,0.3348,0.337,0.3401,0.3402,0.3477,0.3476,0,0,0,0.3087,0.307,0.3114,0.3154,0.3179,0.3185,0.3194,0.3302,0.3319,0.335,0.3372,0.3402,0.3404,0.3477,0.3477,0.3435,0,0,0,0.3083,0.3054,0.311,0.3088,0.3176,0.3242,0.3187,0.3311,0.3326,0.3371,0.3402,0.3405,0.3477,0.3477,0.3436,0.3421,0,0,0,0.3054,0.3051,0.3066,0.3086,0.314,0.3241,0.3265,0.3315,0.3339,0.34,0.3405,0.3477,0.3477,0.3437,0.3423,0.3429,0,0,0,0.3012,0.3028,0.3064,0.3091,0.3139,0.3214,0.3265,0.3324,0.3371,0.3403,0.3477,0.3477,0.3438,0.3425,0.343,0.3425,0.342,0,0,0.3011,0.3027,0.3045,0.3082,0.314,0.3197,0.325,0.3331,0.3372,0.3439,0.3442,0.3436,0.3424,0.3429,0.3407,0.3402,0,0,0,0.3032,0.3044,0.3068,0.3111,0.3172,0.3223,0.3299,0.3328,0.3387,0.3399,0.3441,0.3435,0.3439,0.3439,0.3435,0.3441,0.3475,0.3475,0.3475,0.2975,0.3026,0.306,0.3126,0.3167,0.3244,0.3282,0.3335,0.3375,0.3384,0.3404,0.3384,0.3382,0.338,0.3385,0.3407,0.3407,0.3407,0.3406,0.2977,0.3003,0.3055,0.3106,0.3159,0.3203,0.3277,0.3304,0.3352,0.3374,0.3381,0.3399,0.3373,0.3381,0.3404,0.3404,0.3405,0.3405,0.3405,0.2945,0.2966,0.3001,0.3067,0.3113,0.3179,0.3222,0.327,0.3315,0.3322,0.3347,0.3348,0.3354,0.3331,0.3331,0.3331,0.3331,0.3331,0.3331,0.2897,0.2938,0.2969,0.3033,0.3066,0.3116,0.3193,0.3227,0.3276,0.3307,0.3308,0.3346,0.3362,0.3364,0.333,0.333,0.333,0.333,0.333,0.2879,0.289,0.2937,0.297,0.3049,0.309,0.315,0.3214,0.3249,0.3269,0.3305,0.331,0.3329,0.3333,0.3335,0.3295,0.3295,0.3295,0.3295,0.2851,0.2865,0.2923,0.2972,0.3025,0.3084,0.3134,0.3193,0.3256,0.3281,0.3294,0.3301,0.3302,0.3321,0.3325,0.3327,0.3287,0.3287,0.3287,0.2841,0.2863,0.2896,0.2958,0.3023,0.3078,0.3126,0.3179,0.3254,0.3287,0.3301,0.3301,0.3313,0.3315,0.3348,0.3352,0.3358,0,0]},{"header":{"parameterUnit":"m.s-1","parameterCategory":1,"la1":30.2992,"la2":30.254,"lo1":-89.0895,"lo2":-89.0443,"dy":0.0025,"dx":0.0025,"nx":19,"ny":19,"refTime":"2026-03-19T03:00:00:Z","depth":0,"parameterNumber":3,"parameterNumberName":"V-component_of_WINDS"},"data":[0,0,0,4.2262,4.2261,4.2208,4.2207,4.2132,4.2132,0,0,0,0,0,0,0,0,0,0,0,4.2277,4.2277,4.2262,4.2261,4.2208,4.2207,4.2133,4.2132,0,0,0,0,0,0,0,0,0,0,0,4.2278,4.2277,4.2276,4.2261,4.2208,4.2207,4.2133,4.2175,0,0,0,0,0,0,0,0,0,0,4.2227,4.2241,4.2277,4.2276,4.2261,4.2208,4.2207,4.2177,4.2172,4.2155,0,4.2143,0,4.2136,4.2127,4.2126,0,0,0,4.226,4.2245,4.2232,4.2276,4.226,4.2208,4.2232,4.2174,4.2169,4.2149,4.2142,4.2139,4.2135,4.2126,4.2126,4.2038,4.2038,0,0,4.2263,4.2266,4.2236,4.2229,4.224,4.2233,4.223,4.2171,4.2162,4.2141,4.2137,4.2134,4.2126,4.2125,4.2039,4.2038,0,0,0,4.2272,4.2268,4.2257,4.2232,4.2223,4.2232,4.2228,4.2165,4.2161,4.2136,4.2133,4.2125,4.2124,4.2039,4.2039,4.2024,0,0,0,4.2274,4.2274,4.2258,4.2259,4.2224,4.2194,4.2223,4.2165,4.2158,4.2133,4.2125,4.2124,4.204,4.2039,4.2025,4.2016,0,0,0,4.2281,4.2274,4.2267,4.2259,4.2237,4.2195,4.2187,4.2163,4.2156,4.2126,4.2123,4.204,4.2039,4.2027,4.2018,4.1994,0,0,0,4.2288,4.2252,4.2267,4.2225,4.2238,4.2188,4.2188,4.2149,4.2122,4.2125,4.204,4.2039,4.2027,4.2019,4.1995,4.1974,4.1966,0,0,4.2244,4.2247,4.2223,4.2234,4.2183,4.2195,4.214,4.2111,4.2103,4.2059,4.2057,4.2025,4.2018,4.1994,4.1921,4.1915,0,0,0,4.221,4.2192,4.2178,4.2155,4.2134,4.2114,4.2094,4.2083,4.2047,4.2083,4.201,4.2006,4.1992,4.1981,4.1976,4.1963,4.2034,4.2035,4.2035,4.215,4.2146,4.2105,4.2095,4.2072,4.2053,4.2033,4.2014,4.2014,4.1997,4.1983,4.194,4.1928,4.1924,4.1911,4.1973,4.1973,4.1973,4.1973,4.2085,4.2059,4.2064,4.2026,4.2021,4.1987,4.1967,4.1968,4.1934,4.195,4.1937,4.1953,4.1918,4.1906,4.1971,4.1972,4.1972,4.1972,4.1972,4.2045,4.2032,4.2022,4.1989,4.1963,4.1953,4.1922,4.1918,4.1913,4.1901,4.1886,4.1886,4.1885,4.1894,4.1894,4.1894,4.1894,4.1894,4.1894,4.2006,4.1996,4.1972,4.195,4.1935,4.1914,4.1895,4.1879,4.186,4.1859,4.1859,4.186,4.1916,4.193,4.1891,4.1892,4.1892,4.1892,4.1892,4.194,4.1955,4.1918,4.1904,4.1877,4.1851,4.1848,4.1816,4.1802,4.1786,4.1791,4.1834,4.1835,4.1839,4.185,4.1793,4.1793,4.1793,4.1793,4.1905,4.1907,4.1869,4.1846,4.1823,4.1817,4.1773,4.1758,4.1744,4.1734,4.1742,4.1757,4.1762,4.176,4.1766,4.1776,4.1702,4.1701,4.1701,4.1864,4.1863,4.1828,4.1819,4.1798,4.1779,4.1737,4.1708,4.1695,4.1698,4.1727,4.1731,4.1755,4.1763,4.1764,4.1774,4.1793,0,0]}]]